[[{"header":{"parameterUnit":"m.s-1","parameterCategory":1,"la1":30.2991,"la2":30.254,"lo1":-89.0895,"lo2":-89.0444,"dy":0.0017,"dx":0.0017,"nx":28,"ny":28,"refTime":"2023-09-30T21:00:00:Z","depth":0,"parameterNumber":2,"parameterNumberName":"U-component_of_WINDS"},"data":[0,0,0,0,0,0,0,0,0,0,0,0,0,0,0,0,0,0,0,0,0,0,0,0,0,0,0,0,0,0,0,0,0,0,0,0,0,0,0,0,0,0,0,0,0,0,0,0,0,0,0,0,0,0,0,0,0,0,-6.6441,-6.6442,0,-6.6483,-6.6484,-6.6484,-6.6374,-6.6371,-6.6367,-6.6364,-6.6407,-6.6411,-6.6415,0,0,0,0,0,0,0,0,0,0,0,0,0,-6.6267,-6.6271,-6.6441,-6.6442,-6.6442,-6.6483,-6.6484,-6.6484,-6.6375,-6.6371,-6.6367,-6.6363,-6.6405,-6.641,-6.6415,0,0,0,0,0,0,0,0,0,0,0,0,0,-6.6329,-6.6272,-6.6441,-6.6393,-6.6389,-6.6483,-6.6484,-6.6484,-6.6376,-6.6371,-6.6366,-6.6361,-6.6403,-6.641,-6.6416,-6.6559,0,0,-6.6436,-6.6439,0,0,0,0,0,0,0,0,-6.6326,-6.6336,-6.6399,-6.6396,-6.6392,-6.6418,-6.6438,-6.6509,-6.6377,-6.6381,-6.6364,-6.6358,-6.6415,-6.642,-6.6439,-6.6561,-6.6563,-6.6436,-6.644,-6.6443,-6.6445,0,0,0,0,0,0,0,-6.6322,-6.6333,-6.6458,-6.6401,-6.6396,-6.6369,-6.6372,-6.6451,-6.6426,-6.638,-6.6372,-6.6379,-6.6412,-6.6433,-6.6439,-6.6563,-6.6436,-6.6442,-6.6446,-6.6449,-6.6806,-6.6812,0,0,0,0,0,0,-6.6324,-6.6331,-6.6456,-6.6459,-6.6346,-6.6376,-6.638,-6.6415,-6.6425,-6.6421,-6.6383,-6.6373,-6.6424,-6.6432,-6.644,-6.6609,-6.6443,-6.6449,-6.6453,-6.6801,-6.6808,-6.6814,0,0,0,0,0,0,-6.632,-6.6336,-6.6455,-6.6393,-6.6406,-6.6385,-6.6425,-6.6419,-6.644,-6.6427,-6.6422,-6.6409,-6.6421,-6.6431,-6.6531,-6.6609,-6.6452,-6.6458,-6.6794,-6.6803,-6.6811,-6.6948,0,0,0,0,0,0,-6.6316,-6.6336,-6.6389,-6.6395,-6.641,-6.6545,-6.643,-6.6423,-6.6451,-6.6439,-6.645,-6.6447,-6.6417,-6.6522,-6.6537,-6.6615,-6.6463,-6.6787,-6.6798,-6.6808,-6.6936,-6.696,-6.698,0,0,0,0,0,-6.631,-6.6426,-6.6393,-6.6408,-6.6477,-6.655,-6.6558,-6.6521,-6.6458,-6.6512,-6.6504,-6.6447,-6.6598,-6.6533,-6.6549,-6.663,-6.6782,-6.6795,-6.6807,-6.6926,-6.6955,-6.698,0,0,0,0,0,0,-6.6429,-6.6426,-6.6389,-6.651,-6.6531,-6.6531,-6.6598,-6.6553,-6.6592,-6.6579,-6.6531,-6.6535,-6.6644,-6.6647,-6.6574,-6.677,-6.6679,-6.6696,-6.6764,-6.6792,-6.6813,-6.6811,-6.6468,0,0,0,0,0,-6.647,-6.653,-6.6523,-6.663,-6.6643,-6.6619,-6.665,-6.662,-6.664,-6.6648,-6.6647,-6.6669,-6.6721,-6.6756,-6.6803,-6.6936,-6.6938,-6.7,-6.7022,-6.704,-6.7056,-6.7128,-6.7156,-6.6855,-6.6855,-6.6855,0,0,-6.6554,-6.6559,-6.66,-6.6655,-6.6667,-6.6731,-6.6627,-6.6698,-6.6745,-6.6658,-6.6753,-6.6753,-6.6774,-6.6892,-6.6943,-6.6897,-6.7139,-6.7057,-6.7071,-6.7076,-6.7144,-6.7172,-6.7197,-6.6864,-6.6862,-6.6861,0,0,-6.674,-6.6749,-6.6841,-6.6856,-6.6877,-6.6861,-6.6883,-6.6891,-6.6888,-6.6982,-6.6919,-6.6974,-6.7065,-6.7083,-6.7104,-6.7299,-6.7248,-6.7315,-6.7431,-6.7501,-6.7525,-6.7546,-6.7617,-6.7643,-6.733,-6.7331,-6.7331,0,-6.6841,-6.6934,-6.6893,-6.6969,-6.6996,-6.6921,-6.7014,-6.7031,-6.7067,-6.7087,-6.7035,-6.7149,-6.7157,-6.7279,-6.7327,-6.7346,-6.737,-6.7314,-6.7525,-6.7546,-6.7564,-6.7631,-6.7658,-6.7339,-6.7338,-6.7337,-6.7336,0,-6.7059,-6.7125,-6.7196,-6.7234,-6.7268,-6.7352,-6.7324,-6.7364,-6.7331,-6.7321,-6.7419,-6.7427,-6.7475,-6.7501,-6.747,-6.7619,-6.759,-6.7533,-6.7441,-6.7602,-6.7664,-6.7689,-6.7351,-6.7348,-6.7345,-6.7343,0,0,-6.732,-6.7335,-6.7362,-6.7379,-6.7398,-6.7448,-6.7529,-6.7577,-6.7613,-6.764,-6.7708,-6.7787,-6.7735,-6.7759,-6.7729,-6.7791,-6.7947,-6.7726,-6.7725,-6.7768,-6.8114,-6.8158,-6.8188,-6.7913,-6.7918,-6.7922,-6.8112,0,-6.7505,-6.7644,-6.7611,-6.7749,-6.781,-6.7741,-6.7811,-6.7831,-6.7824,-6.7875,-6.7866,-6.7924,-6.7849,-6.7864,-6.7922,-6.7916,-6.8016,-6.7901,-6.7976,-6.798,-6.7974,-6.822,-6.8266,-6.8446,-6.8136,-6.814,-6.8143,0,-6.7738,-6.7776,-6.7921,-6.7931,-6.7956,-6.802,-6.8062,-6.8111,-6.8133,-6.8123,-6.8151,-6.811,-6.819,-6.8098,-6.8209,-6.8132,-6.8161,-6.8163,-6.8169,-6.8175,-6.8072,-6.8234,-6.8502,-6.8529,-6.8181,-6.8178,-6.8175,0,-6.7916,-6.8003,-6.8101,-6.8117,-6.8132,-6.8179,-6.8187,-6.8203,-6.8235,-6.8272,-6.8292,-6.8338,-6.8363,-6.84,-6.8372,-6.8307,-6.8489,-6.8394,-6.8484,-6.8485,-6.8526,-6.8524,-6.8803,-6.8544,-6.8543,-6.8543,-6.8542,0,-6.8126,-6.8217,-6.8181,-6.8242,-6.8343,-6.8304,-6.8405,-6.8405,-6.842,-6.848,-6.8423,-6.848,-6.844,-6.8494,-6.8473,-6.8569,-6.8581,-6.8576,-6.8569,-6.8582,-6.8583,-6.86,-6.8587,-6.855,-6.8548,-6.8547,-6.8546,0,-6.8341,-6.8321,-6.8424,-6.843,-6.8433,-6.8508,-6.8513,-6.8569,-6.8558,-6.8635,-6.865,-6.8633,-6.8694,-6.867,-6.8735,-6.8721,-6.8845,-6.8821,-6.8838,-6.8832,-6.8925,-6.8917,-6.9226,-6.9265,-6.898,-6.8982,-6.8985,0,-6.8477,-6.8546,-6.856,-6.8596,-6.8609,-6.8668,-6.87,-6.8664,-6.87,-6.8731,-6.8785,-6.8841,-6.8884,-6.8985,-6.8978,-6.9028,-6.9006,-6.9111,-6.9013,-6.9024,-6.9009,-6.9006,-6.9013,-6.9131,-6.9134,-6.9137,-6.9139,0,-6.872,-6.8707,-6.8756,-6.8803,-6.8843,-6.8878,-6.8908,-6.8941,-6.8906,-6.895,-6.9012,-6.9046,-6.9113,-6.917,-6.9214,-6.9223,-6.9176,-6.917,-6.9194,-6.9207,-6.9215,-6.9213,-6.8892,-6.9163,-6.916,-6.9159,-6.9157,-6.9156,-6.8901,-6.8959,-6.8979,-6.9036,-6.9055,-6.9084,-6.9139,-6.9135,-6.9186,-6.9238,-6.9214,-6.9286,-6.9307,-6.9362,-6.9378,-6.9434,-6.9393,-6.9427,-6.9436,-6.9446,-6.9458,-6.9205,-6.9442,-6.9441,-6.9441,-6.944,-6.944,0,-6.9142,-6.9151,-6.9204,-6.9248,-6.9294,-6.9246,-6.9277,-6.9318,-6.9383,-6.9406,-6.945,-6.9523,-6.9578,-6.9577,-6.9629,-6.9674,-6.9654,-6.9689,-6.9686,-6.9689,-6.9491,-6.9466,-6.9705,-6.9705,-6.9705,-6.9705,-6.9704,-6.9704,-6.9273,-6.9371,-6.936,-6.9467,-6.9476,-6.9547,-6.9569,-6.9596,-6.9615,-6.9698,-6.9745,-6.9743,-6.9757,-6.981,-6.9859,-6.9857,-6.9879,-6.9923,-6.9913,-6.9729,-6.9703,-6.9677,-6.9654,-6.9928,-6.9928,-7.0106,-7.0108,-7.0109]},{"header":{"parameterUnit":"m.s-1","parameterCategory":1,"la1":30.2991,"la2":30.254,"lo1":-89.0895,"lo2":-89.0444,"dy":0.0017,"dx":0.0017,"nx":28,"ny":28,"refTime":"2023-09-30T21:00:00:Z","depth":0,"parameterNumber":3,"parameterNumberName":"V-component_of_WINDS"},"data":[0,0,0,0,0,0,0,0,0,0,0,0,0,0,0,0,0,0,0,0,0,0,0,0,0,0,0,0,0,0,0,0,0,0,0,0,0,0,0,0,0,0,0,0,0,0,0,0,0,0,0,0,0,0,0,0,0,0,-2.0168,-2.0168,0,-2.0155,-2.0155,-2.0155,-2.0108,-2.0107,-2.0106,-2.0105,-2.0093,-2.0093,-2.0094,0,0,0,0,0,0,0,0,0,0,0,0,0,-2.0152,-2.0153,-2.0168,-2.0168,-2.0168,-2.0155,-2.0155,-2.0155,-2.0109,-2.0107,-2.0106,-2.0105,-2.0093,-2.0093,-2.0094,0,0,0,0,0,0,0,0,0,0,0,0,0,-2.0151,-2.0153,-2.0168,-2.0143,-2.0141,-2.0155,-2.0155,-2.0155,-2.0109,-2.0107,-2.0106,-2.0104,-2.0092,-2.0093,-2.0094,-2.0132,0,0,-2.0097,-2.0098,0,0,0,0,0,0,0,0,-2.0151,-2.0152,-2.0147,-2.0145,-2.0142,-2.0132,-2.0145,-2.0147,-2.0109,-2.0121,-2.0105,-2.0103,-2.0107,-2.0107,-2.0108,-2.0132,-2.0131,-2.0097,-2.0098,-2.0098,-2.0099,0,0,0,0,0,0,0,-2.0152,-2.0152,-2.0163,-2.0147,-2.0144,-2.0132,-2.0131,-2.0145,-2.0123,-2.012,-2.0116,-2.0116,-2.0105,-2.0107,-2.0107,-2.0131,-2.0097,-2.0098,-2.0099,-2.0099,-2.0184,-2.0185,0,0,0,0,0,0,-2.0155,-2.0153,-2.0164,-2.0163,-2.0143,-2.0134,-2.0132,-2.0137,-2.0123,-2.0119,-2.0117,-2.0113,-2.0106,-2.0106,-2.0107,-2.0149,-2.0098,-2.0099,-2.01,-2.0182,-2.0184,-2.0186,0,0,0,0,0,0,-2.0155,-2.0157,-2.0164,-2.0157,-2.0157,-2.0136,-2.0142,-2.0137,-2.0139,-2.0121,-2.0116,-2.0123,-2.0105,-2.0105,-2.0126,-2.0148,-2.01,-2.0101,-2.018,-2.0183,-2.0185,-2.0236,0,0,0,0,0,0,-2.0155,-2.0157,-2.0171,-2.0157,-2.0157,-2.0184,-2.0143,-2.0138,-2.0141,-2.0136,-2.0125,-2.0121,-2.0104,-2.0125,-2.0127,-2.0149,-2.0101,-2.0178,-2.0181,-2.0184,-2.0232,-2.024,-2.0247,0,0,0,0,0,-2.0154,-2.0187,-2.0172,-2.0174,-2.0175,-2.0185,-2.0185,-2.0164,-2.0143,-2.0157,-2.0145,-2.0122,-2.0145,-2.0127,-2.0129,-2.0152,-2.0176,-2.018,-2.0184,-2.0229,-2.0239,-2.0246,0,0,0,0,0,0,-2.0205,-2.0185,-2.0168,-2.0197,-2.0193,-2.0177,-2.0195,-2.0175,-2.0177,-2.0173,-2.0146,-2.0144,-2.0168,-2.0162,-2.0142,-2.0187,-2.0157,-2.0161,-2.0191,-2.0199,-2.0206,-2.0208,-2.0102,0,0,0,0,0,-2.0219,-2.0229,-2.0211,-2.0238,-2.0237,-2.0216,-2.022,-2.0204,-2.0199,-2.0197,-2.0186,-2.0182,-2.0189,-2.0194,-2.0199,-2.0231,-2.0227,-2.0247,-2.0254,-2.026,-2.0265,-2.028,-2.0289,-2.0198,-2.0198,-2.0198,0,0,-2.0249,-2.0239,-2.0247,-2.0248,-2.0243,-2.0254,-2.0215,-2.0229,-2.0236,-2.0199,-2.0218,-2.021,-2.0203,-2.023,-2.0241,-2.0225,-2.0289,-2.0265,-2.027,-2.0271,-2.0285,-2.0294,-2.0301,-2.0201,-2.02,-2.02,0,0,-2.0309,-2.0303,-2.0324,-2.032,-2.0312,-2.0298,-2.0303,-2.029,-2.0283,-2.0301,-2.0273,-2.0282,-2.0293,-2.029,-2.029,-2.0346,-2.0325,-2.0349,-2.0386,-2.0402,-2.0409,-2.0415,-2.0435,-2.0443,-2.0353,-2.0353,-2.0353,0,-2.0348,-2.0363,-2.0338,-2.0353,-2.0353,-2.0319,-2.034,-2.0337,-2.0332,-2.0333,-2.0316,-2.0329,-2.0322,-2.0347,-2.0361,-2.0362,-2.0366,-2.035,-2.041,-2.0416,-2.0421,-2.044,-2.0448,-2.0356,-2.0355,-2.0355,-2.0355,0,-2.041,-2.0421,-2.0439,-2.0434,-2.0436,-2.0455,-2.0432,-2.0438,-2.0421,-2.0408,-2.0427,-2.0417,-2.0419,-2.0424,-2.0408,-2.0446,-2.0436,-2.0415,-2.0384,-2.0433,-2.0451,-2.0458,-2.036,-2.0359,-2.0358,-2.0357,0,0,-2.0503,-2.0483,-2.049,-2.0487,-2.0475,-2.0483,-2.0499,-2.05,-2.0505,-2.0502,-2.0515,-2.0524,-2.0504,-2.0504,-2.0487,-2.05,-2.0545,-2.0477,-2.0476,-2.049,-2.0586,-2.0602,-2.0611,-2.0531,-2.0532,-2.0533,-2.0586,0,-2.056,-2.0586,-2.0564,-2.0594,-2.0603,-2.057,-2.0583,-2.0577,-2.0566,-2.0572,-2.0559,-2.0566,-2.0539,-2.0538,-2.055,-2.0537,-2.0564,-2.0533,-2.0542,-2.0543,-2.0545,-2.062,-2.0638,-2.0689,-2.0593,-2.0594,-2.0595,0,-2.0631,-2.063,-2.0661,-2.0646,-2.0649,-2.0662,-2.066,-2.0666,-2.0659,-2.0649,-2.0648,-2.0626,-2.0641,-2.061,-2.0629,-2.0608,-2.061,-2.0604,-2.0605,-2.0606,-2.0572,-2.0623,-2.0705,-2.0713,-2.0605,-2.0605,-2.0604,0,-2.0695,-2.0702,-2.0721,-2.0719,-2.0702,-2.0712,-2.0705,-2.0696,-2.0698,-2.0696,-2.0697,-2.0698,-2.0698,-2.0699,-2.0678,-2.0658,-2.0699,-2.0667,-2.0692,-2.0692,-2.0703,-2.0703,-2.0787,-2.0704,-2.0704,-2.0704,-2.0703,0,-2.0761,-2.0782,-2.075,-2.0761,-2.0783,-2.0756,-2.0778,-2.0768,-2.0759,-2.0768,-2.074,-2.0749,-2.072,-2.0726,-2.071,-2.0728,-2.0728,-2.0721,-2.0716,-2.0724,-2.0725,-2.0725,-2.0721,-2.0706,-2.0705,-2.0705,-2.0704,0,-2.0838,-2.0817,-2.0835,-2.0817,-2.0813,-2.083,-2.0814,-2.0824,-2.081,-2.0821,-2.0823,-2.08,-2.0806,-2.0785,-2.0787,-2.0776,-2.0802,-2.0791,-2.0805,-2.0801,-2.0827,-2.0825,-2.0915,-2.0925,-2.0836,-2.0837,-2.0837,0,-2.0882,-2.0896,-2.0879,-2.0883,-2.0877,-2.0884,-2.0885,-2.0859,-2.0861,-2.0853,-2.0864,-2.0867,-2.0868,-2.0878,-2.0862,-2.0863,-2.0852,-2.0883,-2.0852,-2.0859,-2.0853,-2.0852,-2.0853,-2.089,-2.0891,-2.0892,-2.0893,0,-2.0962,-2.095,-2.0953,-2.0952,-2.0954,-2.0952,-2.0948,-2.0953,-2.0924,-2.0928,-2.0933,-2.0934,-2.0935,-2.0938,-2.0936,-2.0928,-2.0906,-2.0903,-2.0908,-2.0916,-2.0923,-2.092,-2.0822,-2.0901,-2.09,-2.09,-2.0899,-2.0899,-2.1023,-2.1034,-2.1023,-2.1027,-2.1021,-2.1017,-2.1025,-2.1012,-2.1015,-2.1014,-2.0998,-2.1006,-2.0996,-2.099,-2.0985,-2.0991,-2.0976,-2.0985,-2.0987,-2.0989,-2.0994,-2.0922,-2.099,-2.099,-2.099,-2.0989,-2.0989,0,-2.1102,-2.1092,-2.1096,-2.1091,-2.1093,-2.1071,-2.1065,-2.1069,-2.1076,-2.1068,-2.1069,-2.1074,-2.1077,-2.106,-2.106,-2.1068,-2.1058,-2.1069,-2.1068,-2.1067,-2.1007,-2.1002,-2.1077,-2.1077,-2.1077,-2.1077,-2.1077,-2.1077,-2.1143,-2.116,-2.1147,-2.116,-2.1151,-2.1158,-2.1156,-2.1152,-2.1146,-2.1153,-2.1155,-2.1143,-2.1132,-2.1131,-2.1132,-2.1127,-2.1129,-2.1144,-2.1135,-2.108,-2.1071,-2.1063,-2.1058,-2.1144,-2.1144,-2.1195,-2.1195,-2.1196]}]]